IGO691H VOBL-VOMM

Flight info

Callsign IGO691H
Flight time 0h 31m
Altitude 15000
Route BIA W116 MMV
Aircraft A21N/M-SDE2E3FGHIRWXY/LB1

Departure

Time 2026-05-06 16:15
Airport Kempegowda International Airport Bengaluru (VOBL)

Arrival

Time 2026-05-06 16:46
Airport Chennai International Airport (VOMM)
Time Latitude Longitude Altitude Speed Heading
2026-05-06 15:56 13.20366 77.69488 2989 ft 0 kts
2026-05-06 16:02 13.20363 77.69488 2989 ft 2 kts
2026-05-06 16:02 13.20343 77.69488 2989 ft 2 kts
2026-05-06 16:03 13.20328 77.69488 2988 ft 2 kts
2026-05-06 16:03 13.20313 77.69488 2987 ft 2 kts
2026-05-06 16:03 13.20300 77.69488 2987 ft 0 kts
2026-05-06 16:03 13.20288 77.69488 2986 ft 2 kts 336°
2026-05-06 16:04 13.20280 77.69494 2986 ft 2 kts 316°
2026-05-06 16:04 13.20272 77.69507 2985 ft 2 kts 287°
2026-05-06 16:04 13.20270 77.69518 2985 ft 1 kts 268°
2026-05-06 16:04 13.20270 77.69521 2984 ft 0 kts 271°
2026-05-06 16:09 13.20270 77.69524 2984 ft 0 kts 271°
2026-05-06 16:09 13.20270 77.69523 2984 ft 1 kts 271°
2026-05-06 16:09 13.20270 77.69504 2985 ft 1 kts 270°
2026-05-06 16:09 13.20271 77.69492 2986 ft 2 kts 272°
2026-05-06 16:10 13.20272 77.69466 2987 ft 4 kts 271°
2026-05-06 16:10 13.20272 77.69427 2988 ft 7 kts 271°
2026-05-06 16:10 13.20276 77.69371 2991 ft 6 kts 286°
2026-05-06 16:10 13.20291 77.69349 2993 ft 4 kts 313°
2026-05-06 16:11 13.20316 77.69334 2994 ft 2 kts 346°
2026-05-06 16:11 13.20360 77.69331 2995 ft 9 kts 360°
2026-05-06 16:11 13.20450 77.69331 2999 ft 14 kts
2026-05-06 16:11 13.20523 77.69315 3002 ft 5 kts 313°
2026-05-06 16:12 13.20537 77.69282 3003 ft 6 kts 278°
2026-05-06 16:12 13.20539 77.69223 3004 ft 8 kts 271°
2026-05-06 16:12 13.20539 77.69177 3005 ft 12 kts 270°
2026-05-06 16:12 13.20540 77.69029 3008 ft 18 kts 270°
2026-05-06 16:13 13.20541 77.68905 3010 ft 16 kts 270°
2026-05-06 16:13 13.20541 77.68792 3011 ft 15 kts 271°
2026-05-06 16:13 13.20544 77.68686 3011 ft 14 kts 274°
2026-05-06 16:13 13.20606 77.68616 3011 ft 14 kts 355°
2026-05-06 16:14 13.20669 77.68617 3012 ft 13 kts
2026-05-06 16:14 13.20713 77.68723 3011 ft 21 kts 91°
2026-05-06 16:14 13.20710 77.69147 3008 ft 95 kts 90°
2026-05-06 16:14 13.20701 77.70049 2995 ft 156 kts 90°
2026-05-06 16:15 13.20694 77.71302 3226 ft 184 kts 92°
2026-05-06 16:15 13.20690 77.72182 3647 ft 187 kts 88°
2026-05-06 16:15 13.21072 77.73452 4252 ft 199 kts 60°
2026-05-06 16:15 13.22184 77.75095 4897 ft 219 kts 60°
2026-05-06 16:16 13.22644 77.76626 5155 ft 240 kts 92°
2026-05-06 16:16 13.22386 77.78374 5599 ft 258 kts 103°
2026-05-06 16:16 13.21951 77.80207 6140 ft 272 kts 103°
2026-05-06 16:16 13.21506 77.82102 6915 ft 276 kts 102°
2026-05-06 16:17 13.21216 77.83399 7462 ft 278 kts 102°
2026-05-06 16:17 13.20805 77.85330 8246 ft 282 kts 101°
2026-05-06 16:17 13.20271 77.87959 9280 ft 287 kts 100°
2026-05-06 16:17 13.19875 77.89970 10050 ft 291 kts 100°
2026-05-06 16:18 13.19475 77.92026 10669 ft 302 kts 100°
2026-05-06 16:18 13.19057 77.94201 11058 ft 320 kts 100°
2026-05-06 16:18 13.18768 77.95714 11303 ft 332 kts 100°
2026-05-06 16:18 13.18314 77.98096 11793 ft 346 kts 100°
2026-05-06 16:19 13.17844 78.00552 12552 ft 351 kts 100°
2026-05-06 16:19 13.17218 78.03822 13603 ft 356 kts 99°
2026-05-06 16:19 13.16746 78.06287 14331 ft 359 kts 99°
2026-05-06 16:19 13.16260 78.08827 14813 ft 362 kts 99°
2026-05-06 16:20 13.15936 78.10520 14972 ft 362 kts 99°
2026-05-06 16:20 13.15455 78.13032 14996 ft 362 kts 99°
2026-05-06 16:20 13.14966 78.15587 14998 ft 362 kts 99°
2026-05-06 16:20 13.14324 78.18942 15000 ft 362 kts 99°
2026-05-06 16:21 13.13837 78.21484 15000 ft 362 kts 99°
2026-05-06 16:21 13.13354 78.24003 15000 ft 362 kts 99°
2026-05-06 16:21 13.12870 78.26527 15000 ft 362 kts 99°
2026-05-06 16:21 13.12388 78.29037 15000 ft 362 kts 99°
2026-05-06 16:22 13.11901 78.31573 15000 ft 362 kts 99°
2026-05-06 16:22 13.11574 78.33278 15000 ft 362 kts 99°
2026-05-06 16:22 13.11089 78.35800 15000 ft 361 kts 99°
2026-05-06 16:22 13.10609 78.38300 15000 ft 361 kts 99°
2026-05-06 16:23 13.10122 78.40827 15000 ft 361 kts 99°
2026-05-06 16:23 13.09475 78.44192 15000 ft 361 kts 99°
2026-05-06 16:23 13.08983 78.46748 15000 ft 361 kts 99°
2026-05-06 16:23 13.08498 78.49264 15000 ft 361 kts 99°
2026-05-06 16:24 13.08013 78.51779 14999 ft 361 kts 99°
2026-05-06 16:24 13.07691 78.53449 14997 ft 361 kts 99°
2026-05-06 16:24 13.07038 78.56829 14990 ft 361 kts 99°
2026-05-06 16:24 13.06715 78.58504 14985 ft 361 kts 99°
2026-05-06 16:25 13.06229 78.61019 14978 ft 361 kts 99°
2026-05-06 16:25 13.05579 78.64383 14969 ft 361 kts 99°
2026-05-06 16:25 13.05251 78.66080 14964 ft 361 kts 100°
2026-05-06 16:25 13.04604 78.69424 14955 ft 360 kts 100°
2026-05-06 16:26 13.04117 78.71938 14948 ft 360 kts 100°
2026-05-06 16:26 13.03627 78.74465 14943 ft 360 kts 100°
2026-05-06 16:26 13.03303 78.76139 14940 ft 360 kts 99°
2026-05-06 16:26 13.02655 78.79479 14934 ft 360 kts 99°
2026-05-06 16:27 13.02329 78.81164 14931 ft 360 kts 99°
2026-05-06 16:27 13.01839 78.83688 14926 ft 360 kts 99°
2026-05-06 16:27 13.01188 78.87040 14919 ft 360 kts 99°
2026-05-06 16:27 13.00862 78.88722 14915 ft 360 kts 99°
2026-05-06 16:28 13.00214 78.92059 14904 ft 359 kts 99°
2026-05-06 16:28 12.99732 78.94539 14688 ft 354 kts 99°
2026-05-06 16:28 12.99253 78.97006 14136 ft 354 kts 99°
2026-05-06 16:28 12.98931 78.98666 13749 ft 354 kts 99°
2026-05-06 16:29 12.98455 79.01117 13221 ft 352 kts 99°
2026-05-06 16:29 12.97981 79.03550 12709 ft 350 kts 100°
2026-05-06 16:29 12.97507 79.05981 12192 ft 348 kts 100°
2026-05-06 16:29 12.96851 79.09203 11505 ft 347 kts 102°
2026-05-06 16:30 12.96439 79.10809 11160 ft 346 kts 105°
2026-05-06 16:30 12.95994 79.12363 10826 ft 345 kts 105°
2026-05-06 16:30 12.94851 79.16249 10217 ft 334 kts 106°
2026-05-06 16:30 12.94194 79.18469 10021 ft 323 kts 106°
2026-05-06 16:31 12.93759 79.19941 9891 ft 316 kts 106°
2026-05-06 16:31 12.93136 79.22049 9704 ft 305 kts 106°
2026-05-06 16:31 12.92336 79.24756 9377 ft 296 kts 105°
2026-05-06 16:31 12.91937 79.26107 9121 ft 294 kts 105°
2026-05-06 16:32 12.91149 79.28780 8587 ft 293 kts 105°
2026-05-06 16:32 12.90763 79.30087 8330 ft 291 kts 105°
2026-05-06 16:32 12.89980 79.32741 7809 ft 289 kts 105°
2026-05-06 16:32 12.89593 79.34051 7549 ft 288 kts 105°
2026-05-06 16:33 12.89019 79.35992 7163 ft 286 kts 105°
2026-05-06 16:33 12.88440 79.37950 6775 ft 284 kts 105°
2026-05-06 16:33 12.87871 79.39876 6393 ft 282 kts 105°
2026-05-06 16:34 12.86748 79.43672 5855 ft 276 kts 105°
2026-05-06 16:34 12.86223 79.45553 5846 ft 277 kts 98°
2026-05-06 16:34 12.86429 79.48126 5847 ft 274 kts 73°
2026-05-06 16:34 12.87024 79.49993 5846 ft 274 kts 69°
2026-05-06 16:35 12.87457 79.51227 5845 ft 274 kts 69°
2026-05-06 16:35 12.88317 79.53629 5637 ft 269 kts 69°
2026-05-06 16:35 12.88967 79.55426 5196 ft 270 kts 69°
2026-05-06 16:35 12.89626 79.57241 4791 ft 269 kts 69°
2026-05-06 16:36 12.90273 79.59010 4419 ft 267 kts 69°
2026-05-06 16:36 12.90934 79.60805 4083 ft 263 kts 69°
2026-05-06 16:36 12.91578 79.62540 4026 ft 264 kts 69°
2026-05-06 16:36 12.92238 79.64306 4023 ft 265 kts 69°
2026-05-06 16:37 12.92680 79.65480 3968 ft 262 kts 69°
2026-05-06 16:37 12.93329 79.67193 3603 ft 261 kts 69°
2026-05-06 16:37 12.94223 79.69513 3045 ft 262 kts 69°
2026-05-06 16:37 12.94897 79.71242 2668 ft 260 kts 69°
2026-05-06 16:38 12.95344 79.72382 2432 ft 259 kts 69°
2026-05-06 16:38 12.96151 79.74693 2311 ft 258 kts 81°
2026-05-06 16:38 12.96211 79.75905 2312 ft 254 kts 93°
2026-05-06 16:38 12.95959 79.78203 2309 ft 232 kts 98°
2026-05-06 16:39 12.95727 79.79769 2306 ft 217 kts 99°
2026-05-06 16:39 12.95497 79.81275 2310 ft 210 kts 99°
2026-05-06 16:39 12.95274 79.82725 2311 ft 206 kts 99°
2026-05-06 16:39 12.95051 79.84176 2314 ft 206 kts 99°
2026-05-06 16:40 12.94826 79.85639 2315 ft 206 kts 99°
2026-05-06 16:40 12.94677 79.86603 2315 ft 206 kts 99°
2026-05-06 16:40 12.94454 79.88057 2316 ft 206 kts 99°
2026-05-06 16:40 12.94158 79.89979 2316 ft 206 kts 99°
2026-05-06 16:41 12.93934 79.91434 2316 ft 206 kts 99°
2026-05-06 16:41 12.93713 79.92872 2316 ft 206 kts 99°
2026-05-06 16:41 12.93492 79.94332 2307 ft 209 kts 100°
2026-05-06 16:41 12.93288 79.95843 2319 ft 214 kts 99°
2026-05-06 16:42 12.93159 79.96838 2324 ft 215 kts 99°
2026-05-06 16:42 12.92963 79.98372 2329 ft 213 kts 99°
2026-05-06 16:42 12.92977 80.00313 2266 ft 196 kts 81°
2026-05-06 16:42 12.93312 80.01663 2310 ft 196 kts 73°
2026-05-06 16:43 12.93775 80.02980 2329 ft 197 kts 70°
2026-05-06 16:43 12.94278 80.04287 2254 ft 204 kts 69°
2026-05-06 16:43 12.94820 80.05695 2006 ft 217 kts 70°
2026-05-06 16:43 12.95180 80.06645 1873 ft 209 kts 70°
2026-05-06 16:44 12.95840 80.08407 1535 ft 186 kts 70°
2026-05-06 16:44 12.96281 80.09586 1245 ft 170 kts 71°
2026-05-06 16:44 12.96687 80.10671 984 ft 155 kts 71°
2026-05-06 16:44 12.96933 80.11329 805 ft 147 kts 71°
2026-05-06 16:45 12.97400 80.12627 544 ft 145 kts 72°
2026-05-06 16:45 12.97645 80.13284 453 ft 145 kts 71°
2026-05-06 16:45 12.98017 80.14249 249 ft 144 kts 70°
2026-05-06 16:45 12.98505 80.15527 59 ft 144 kts 71°
2026-05-06 16:46 12.98825 80.16391 43 ft 110 kts 68°
2026-05-06 16:46 12.98982 80.16808 45 ft 76 kts 69°
2026-05-06 16:46 12.99095 80.17193 46 ft 17 kts 136°
2026-05-06 16:46 12.98987 80.17236 48 ft 15 kts 177°
2026-05-06 16:47 12.98922 80.17170 50 ft 13 kts 248°
2026-05-06 16:47 12.98885 80.17076 49 ft 14 kts 248°
2026-05-06 16:47 12.98846 80.16976 48 ft 15 kts 249°
2026-05-06 16:47 12.98809 80.16878 49 ft 14 kts 248°
2026-05-06 16:48 12.98773 80.16782 47 ft 10 kts 250°
2026-05-06 16:48 12.98752 80.16737 46 ft 10 kts 225°
2026-05-06 16:48 12.98666 80.16753 48 ft 9 kts 159°
2026-05-06 16:48 12.98603 80.16760 48 ft 9 kts 214°
2026-05-06 16:49 12.98572 80.16700 48 ft 9 kts 246°
2026-05-06 16:49 12.98545 80.16634 47 ft 9 kts 243°
2026-05-06 16:49 12.98507 80.16624 48 ft 5 kts 165°
2026-05-06 16:49 12.98478 80.16634 48 ft 3 kts 161°
2026-05-06 16:50 12.98470 80.16637 49 ft 0 kts 161°
2026-05-06 17:01 12.98471 80.16636 49 ft 1 kts 161°
2026-05-06 17:02 12.98490 80.16630 48 ft 2 kts 160°